"TOA5","MOW","CPU:UNC_MeetingWaters","DataHourly"
"TIMESTAMP","SondeTempC","SpCond","DOSat","DOmg","pH","Turb","BattVolt_Min"
"TS","","","","","","",""
"","Smp","Smp","Smp","Smp","Smp","Smp","Min"
"2005-03-24 16:00:00",16.4699993134,0.0,0.40000000596,0.0399999991059,8.14000034332,115.5,14.25
"2005-03-24 17:00:00",16.5699996948,0.0,0.40000000596,0.0299999993294,8.02999973297,145.699996948,13.0799999237
"2005-03-24 18:00:00",15.6499996185,0.0,0.20000000298,0.019999999553,7.90999984741,111.300003052,12.9799995422
"2005-03-24 19:00:00",14.5,0.0,-0.10000000149,-0.00999999977648,7.90999984741,51.0999984741,12.9600000381
"2005-03-24 20:00:00",13.5399999619,0.0,0.0,0.0,8.05000019073,67.1999969482,12.9300003052
"2005-03-24 21:00:00",12.0699996948,0.0,0.0,0.0,8.10999965668,41.5,12.9099998474
"2005-03-24 22:00:00",11.9200000763,0.0,0.0,0.0,8.13000011444,31.2000007629,12.8900003433
"2005-03-24 23:00:00",11.6000003815,0.0,0.10000000149,0.00999999977648,8.10999965668,32.2999992371,12.8699998856
"2005-03-25 00:00:00",11.1999998093,0.0,0.10000000149,0.00999999977648,8.10999965668,31.1000003815,12.8500003815
"2005-03-25 01:00:00",11.0900001526,0.0,0.10000000149,0.00999999977648,8.07999992371,22.6000003815,12.8400001526
"2005-03-25 02:00:00",11.3299999237,0.0,0.10000000149,0.00999999977648,8.02999973297,16.6000003815,12.8100004196
"2005-03-25 03:00:00",11.470000267,0.0,0.10000000149,0.00999999977648,8.02000045776,17.1000003815,12.8000001907
"2005-03-25 04:00:00",11.4300003052,0.0,0.10000000149,0.00999999977648,7.96999979019,14.6000003815,12.7899999619
"2005-03-25 05:00:00",11.2299995422,0.0,0.10000000149,0.00999999977648,7.94000005722,12.1999998093,12.779999733
"2005-03-25 06:00:00",11.2299995422,0.0,0.10000000149,0.00999999977648,7.90000009537,11.3000001907,12.75
"2005-03-25 07:00:00",11.0100002289,0.0,0.10000000149,0.00999999977648,7.90000009537,10.5,12.7399997711
"2005-03-25 08:00:00",11.0100002289,0.0,0.10000000149,0.00999999977648,7.88999986649,10.1999998093,12.7399997711
"2005-03-25 09:00:00",11.0799999237,0.0,0.0,0.0,7.86999988556,9.60000038147,12.7600002289
"2005-03-25 10:00:00",11.2700004578,0.0,0.0,0.0,7.86999988556,9.5,12.75
"2005-03-25 11:00:00",11.3599996567,0.0,0.0,0.0,7.78999996185,8.69999980927,12.8000001907
"2005-03-25 12:00:00",11.7299995422,0.0,0.0,0.0,7.65999984741,9.19999980927,12.8599996567
"2005-03-25 13:00:00",12.3400001526,0.0,-0.10000000149,-0.00999999977648,8.14999961853,12.0,12.8999996185
"2005-03-25 14:00:00",12.6400003433,0.0,-0.10000000149,-0.00999999977648,8.14000034332,11.3000001907,13.3299999237
"2005-03-25 15:00:00",12.8999996185,0.0,-0.10000000149,-0.00999999977648,8.18999958038,35.0999984741,13.0900001526
"2005-03-25 16:00:00",12.8900003433,0.0,-0.10000000149,-0.00999999977648,8.15999984741,357.899993896,13.1800003052
"2005-03-25 17:00:00",13.3199996948,0.0,-0.10000000149,-0.019999999553,8.13000011444,296.0,13.0100002289
"2005-03-25 18:00:00",12.7299995422,0.0,-0.20000000298,-0.019999999553,8.27999973297,152.300003052,12.8699998856
"2005-03-25 19:00:00",11.9099998474,0.0,-0.10000000149,-0.019999999553,8.06999969482,82.6999969482,12.7899999619
"2005-03-25 20:00:00",10.9899997711,0.0,-0.10000000149,-0.00999999977648,8.18000030518,78.8000030518,12.75
"2005-03-25 21:00:00",11.029999733,0.0,-0.10000000149,-0.00999999977648,8.26000022888,63.0,12.720000267
"2005-03-25 22:00:00",9.89000034332,0.0,-0.10000000149,-0.00999999977648,8.27000045776,41.0,12.7100000381
"2005-03-25 23:00:00",9.22999954224,0.0,-0.10000000149,-0.00999999977648,8.26000022888,30.2000007629,12.7100000381
"2005-03-26 00:00:00",9.05000019073,0.0,-0.10000000149,-0.00999999977648,8.15999984741,18.0,12.6999998093
"2005-03-26 01:00:00",9.03999996185,0.0,-0.10000000149,-0.00999999977648,8.14999961853,14.1999998093,12.6899995804
"2005-03-26 02:00:00",9.73999977112,0.0,-0.10000000149,-0.00999999977648,8.14000034332,11.8000001907,12.6800003052
"2005-03-26 03:00:00",8.93999958038,0.0,-0.10000000149,-0.00999999977648,8.07999992371,11.5,12.6700000763
"2005-03-26 04:00:00",9.27000045776,0.0,-0.10000000149,-0.00999999977648,8.06000041962,11.8999996185,12.6700000763
"2005-03-26 05:00:00",8.97999954224,0.0,-0.10000000149,-0.00999999977648,8.02000045776,10.5,12.6700000763
"2005-03-26 06:00:00",8.97000026703,0.0,-0.10000000149,-0.00999999977648,7.96000003815,9.80000019073,12.6700000763
"2005-03-26 07:00:00",8.85999965668,0.0,-0.10000000149,-0.00999999977648,7.96000003815,8.80000019073,12.6700000763
"2005-03-26 08:00:00",9.22000026703,0.0,-0.10000000149,-0.00999999977648,7.84000015259,8.60000038147,12.6800003052
"2005-03-26 09:00:00",9.14000034332,0.0,-0.10000000149,-0.00999999977648,7.75,8.10000038147,12.6899995804
"2005-03-26 10:00:00",9.47999954224,0.0,-0.10000000149,-0.00999999977648,7.71000003815,8.0,12.720000267
"2005-03-26 11:00:00",9.51000022888,0.0,-0.10000000149,-0.00999999977648,7.61000013351,7.40000009537,12.7299995422
"2005-03-26 12:00:00",9.92000007629,0.0,-0.10000000149,-0.00999999977648,7.51999998093,8.19999980927,12.7899999619
"2005-03-26 13:00:00",10.3500003815,0.0,-0.10000000149,-0.00999999977648,7.38000011444,7.69999980927,12.9200000763
"2005-03-26 14:00:00",10.9899997711,0.0,-0.10000000149,-0.00999999977648,7.23999977112,7.90000009537,13.0200004578
"2005-03-26 15:00:00",10.9200000763,0.0,-0.10000000149,-0.00999999977648,7.17999982834,7.09999990463,12.8500003815
"2005-03-26 16:00:00",11.3599996567,0.0,-0.10000000149,-0.00999999977648,7.15999984741,7.40000009537,12.8999996185
"2005-03-26 17:00:00",11.4099998474,0.0,-0.10000000149,-0.00999999977648,7.13000011444,7.30000019073,12.8100004196
"2005-03-26 18:00:00",11.3999996185,0.0,-0.10000000149,-0.00999999977648,7.13999986649,7.5,12.6899995804
"2005-03-26 19:00:00",11.529999733,0.0,-0.10000000149,-0.00999999977648,7.17000007629,7.40000009537,12.6700000763
"2005-03-26 20:00:00",11.2299995422,0.0,-0.10000000149,-0.00999999977648,7.21000003815,7.09999990463,12.6700000763
"2005-03-26 21:00:00",11.279999733,0.0,-0.10000000149,-0.00999999977648,7.25,7.19999980927,12.6700000763
"2005-03-26 22:00:00",11.2700004578,0.0,-0.10000000149,-0.00999999977648,7.26999998093,6.80000019073,12.6599998474
"2005-03-26 23:00:00",11.1800003052,0.0,-0.20000000298,-0.019999999553,7.30000019073,6.5,12.6499996185
"2005-03-27 00:00:00",11.1599998474,0.0,-0.10000000149,-0.019999999553,7.30999994278,6.59999990463,12.6499996185
"2005-03-27 01:00:00",11.25,0.0,-0.20000000298,-0.019999999553,7.32000017166,6.40000009537,12.6499996185
"2005-03-27 02:00:00",11.1499996185,0.0,-0.20000000298,-0.019999999553,7.32000017166,7.19999980927,12.6499996185
"2005-03-27 03:00:00",11.2299995422,0.0,-0.300000011921,-0.0299999993294,7.26999998093,8.19999980927,12.6400003433
"2005-03-27 04:00:00",10.9399995804,0.0,-0.20000000298,-0.019999999553,7.32000017166,9.5,12.6300001144
"2005-03-27 05:00:00",10.9799995422,0.0,-0.20000000298,-0.019999999553,7.40000009537,12.0,12.6300001144
"2005-03-27 06:00:00",11.0,0.0,-0.20000000298,-0.019999999553,7.48999977112,10.1000003815,12.6000003815
"2005-03-27 07:00:00",10.6899995804,0.0,-0.10000000149,-0.019999999553,7.44000005722,8.5,12.6199998856
"2005-03-27 08:00:00",10.5600004196,0.0,-0.20000000298,-0.019999999553,7.30000019073,8.69999980927,12.6400003433
"2005-03-27 09:00:00",10.6700000763,0.0,-0.20000000298,-0.019999999553,7.23999977112,8.30000019073,12.6400003433
"2005-03-27 10:00:00",11.1000003815,0.0,-0.20000000298,-0.019999999553,7.32000017166,8.19999980927,12.6300001144
"2005-03-27 11:00:00",11.2899999619,0.0,-0.20000000298,-0.019999999553,7.34000015259,7.30000019073,12.6800003052
"2005-03-27 12:00:00",11.6499996185,0.0,-0.20000000298,-0.019999999553,7.25,6.90000009537,12.7700004578
"2005-03-27 13:00:00",12.279999733,0.0,-0.20000000298,-0.019999999553,7.19999980927,6.80000019073,12.779999733
"2005-03-27 14:00:00",12.5699996948,0.0,-0.20000000298,-0.019999999553,7.19000005722,7.09999990463,12.7100000381
"2005-03-27 15:00:00",12.6400003433,0.0,-0.20000000298,-0.019999999553,7.17000007629,6.59999990463,12.6599998474
"2005-03-27 16:00:00",12.6199998856,0.0,-0.20000000298,-0.019999999553,7.19999980927,6.69999980927,12.6199998856
"2005-03-27 17:00:00",12.5600004196,0.0,-0.20000000298,-0.019999999553,7.23999977112,8.30000019073,12.6199998856
"2005-03-27 18:00:00",12.5100002289,0.0,0.0,0.0,7.26000022888,6.80000019073,12.6099996567
"2005-03-27 19:00:00",12.3199996948,0.0,-0.10000000149,-0.00999999977648,7.26999998093,6.80000019073,12.6000003815
"2005-03-27 20:00:00",12.1899995804,0.0,0.300000011921,0.0299999993294,7.32000017166,7.19999980927,12.6000003815
"2005-03-27 21:00:00",12.2399997711,0.0,-0.10000000149,-0.00999999977648,7.36000013351,8.19999980927,12.6000003815
"2005-03-27 22:00:00",12.2399997711,0.0,-0.10000000149,-0.019999999553,7.34000015259,9.89999961853,12.5900001526
"2005-03-27 23:00:00",12.5,0.0,-0.10000000149,-0.00999999977648,8.06999969482,10.3999996185,12.5799999237
"2005-03-28 00:00:00",12.5699996948,0.0,-0.10000000149,-0.00999999977648,7.96999979019,12.1000003815,12.5799999237
"2005-03-28 01:00:00",12.6999998093,0.31400001049,-0.10000000149,-0.00999999977648,7.92000007629,62.2999992371,12.5799999237
"2005-03-28 02:00:00",13.3500003815,0.261999994516,-0.10000000149,-0.00999999977648,7.94999980927,548.900024414,12.5699996948
"2005-03-28 03:00:00",13.6599998474,0.148000001907,0.10000000149,0.00999999977648,8.14999961853,168.300003052,12.5600004196
"2005-03-28 04:00:00",13.6499996185,0.120999999344,0.10000000149,0.00999999977648,8.01000022888,184.199996948,12.5600004196
"2005-03-28 05:00:00",13.8199996948,0.0799999982119,0.10000000149,0.00999999977648,8.11999988556,1339.0,12.5600004196
"2005-03-28 06:00:00",13.6899995804,0.0920000001788,0.10000000149,0.00999999977648,8.26000022888,1180.0,12.5600004196
"2005-03-28 07:00:00",14.4899997711,0.070000000298,0.20000000298,0.019999999553,8.22000026703,1313.0,12.5600004196
"2005-03-28 08:00:00",14.9300003052,0.0750000029802,-0.20000000298,-0.019999999553,8.09000015259,1343.0,12.5699996948
"2005-03-28 09:00:00",15.4300003052,0.0890000015497,0.10000000149,0.00999999977648,7.92000007629,1345.0,13.0100002289
"2005-03-28 10:00:00",15.0900001526,0.131999999285,0.10000000149,0.00999999977648,7.80999994278,1256.0,13.2399997711
"2005-03-28 11:00:00",15.3999996185,0.153999999166,0.0,0.0,7.75,542.5,13.0699996948
"2005-03-28 12:00:00",15.6000003815,0.173999994993,-0.10000000149,-0.00999999977648,7.71999979019,777.0,13.1499996185
"2005-03-28 13:00:00",15.6800003052,0.187000006437,0.0,0.0,7.73000001907,629.700012207,13.1999998093
"2005-03-28 14:00:00",15.1499996185,0.192000001669,-0.10000000149,-0.00999999977648,7.73000001907,720.0,12.9600000381
"2005-03-28 15:00:00",15.1800003052,0.202999994159,0.0,0.0,7.71000003815,517.799987793,13.1899995804
"2005-03-28 16:00:00",14.8900003433,0.208000004292,0.0,0.0,7.73000001907,899.0,12.9899997711
"2005-03-28 17:00:00",14.4300003052,0.215000003576,0.0,0.0,7.76999998093,1342.0,12.8999996185
"2005-03-28 18:00:00",14.0100002289,0.215000003576,0.0,0.0,7.78000020981,1017.0,12.8599996567
"2005-03-28 19:00:00",13.6199998856,0.21400000155,0.0,0.0,7.76000022888,536.200012207,12.8400001526
"2005-03-28 20:00:00",13.25,0.21400000155,0.0,0.0,7.71999979019,206.600006104,12.8100004196
"2005-03-28 21:00:00",13.5200004578,0.137999996543,0.0,0.0,7.80000019073,1338.0,12.7899999619
"2005-03-28 22:00:00",13.1400003433,0.097000002861,0.0,0.0,7.76999998093,244.300003052,12.779999733
"2005-03-28 23:00:00",12.8699998856,0.116999998689,0.0,0.0,7.61000013351,141.300003052,12.7600002289
"2005-03-29 00:00:00",12.6099996567,0.137999996543,0.0,0.0,7.53000020981,105.199996948,12.75
"2005-03-29 01:00:00",12.4499998093,0.168999999762,0.0,0.0,7.5,86.6999969482,12.7399997711
"2005-03-29 02:00:00",12.2299995422,0.180000007153,0.0,0.0,7.51000022888,73.0999984741,12.720000267
"2005-03-29 03:00:00",12.0200004578,0.193000003695,0.0,0.0,7.51999998093,59.9000015259,12.6999998093
"2005-03-29 04:00:00",12.029999733,0.203999996185,-0.10000000149,-0.00999999977648,7.53000020981,52.7000007629,12.6899995804
"2005-03-29 05:00:00",11.9600000381,0.21099999547,-0.10000000149,-0.00999999977648,7.55999994278,41.9000015259,12.6800003052
"2005-03-29 06:00:00",11.8100004196,0.209000006318,-0.10000000149,-0.00999999977648,7.57999992371,35.0,12.6700000763
"2005-03-29 07:00:00",11.6899995804,0.16099999845,0.0,0.0,7.59000015259,30.1000003815,12.6700000763
"2005-03-29 08:00:00",11.8000001907,0.178000003099,-0.10000000149,-0.00999999977648,7.61000013351,27.7999992371,12.720000267
"2005-03-29 09:00:00",12.3500003815,0.229000002146,-0.10000000149,-0.00999999977648,7.63999986649,25.3999996185,13.3800001144
"2005-03-29 10:00:00",13.2100000381,0.231999993324,-0.40000000596,-0.0399999991059,7.67000007629,76.6999969482,13.8199996948
"2005-03-29 11:00:00",14.1700000763,0.232999995351,-0.40000000596,-0.0399999991059,7.69999980927,733.0,13.2100000381
"2005-03-29 12:00:00",15.4899997711,0.236000001431,-0.20000000298,-0.019999999553,7.69999980927,1347.0,14.220000267
"2005-03-29 13:00:00",16.7000007629,0.145999997854,0.0,0.0,7.67000007629,1353.0,14.220000267
"2005-03-29 14:00:00",17.8400001526,0.151999995112,0.20000000298,0.019999999553,7.65999984741,859.0,14.1700000763
"2005-03-29 15:00:00",17.9500007629,0.153999999166,0.20000000298,0.019999999553,7.65999984741,619.099975586,14.1000003815
"2005-03-29 16:00:00",17.7999992371,0.155000001192,0.20000000298,0.019999999553,7.69000005722,292.799987793,13.1300001144
"2005-03-29 17:00:00",17.5300006866,0.141000002623,0.20000000298,0.019999999553,7.73000001907,418.299987793,13.0500001907
"2005-03-29 18:00:00",16.9599990845,0.140000000596,-0.10000000149,-0.00999999977648,7.75,504.0,12.9899997711
"2005-03-29 19:00:00",16.3199996948,0.140000000596,-2.20000004768,-0.219999998808,7.76000022888,438.799987793,12.9600000381
"2005-03-29 20:00:00",15.6899995804,0.140000000596,-3.90000009537,-0.389999985695,7.76999998093,338.0,12.9499998093
"2005-03-29 21:00:00",15.029999733,0.141000002623,-3.0,-0.300000011921,7.76999998093,252.800003052,12.9300003052
"2005-03-29 22:00:00",14.4600000381,0.143000006676,-2.70000004768,-0.280000001192,7.76999998093,159.899993896,12.9099998474
"2005-03-29 23:00:00",13.8900003433,0.143999993801,-2.09999990463,-0.219999998808,7.76000022888,111.599998474,12.8900003433
"2005-03-30 00:00:00",13.4799995422,0.140000000596,-1.79999995232,-0.180000007153,7.76000022888,78.9000015259,12.8699998856
"2005-03-30 01:00:00",13.0799999237,0.136000007391,-1.39999997616,-0.15000000596,7.76000022888,59.7999992371,12.8599996567
"2005-03-30 02:00:00",12.7100000381,0.0130000002682,-1.20000004768,-0.119999997318,7.75,50.5999984741,12.8500003815
"2005-03-30 03:00:00",12.3599996567,0.00999999977648,-0.899999976158,-0.0900000035763,7.73999977112,51.4000015259,12.8299999237
"2005-03-30 04:00:00",12.1599998474,0.00499999988824,-0.600000023842,-0.0599999986589,7.73999977112,46.0999984741,12.8299999237
"2005-03-30 05:00:00",11.9099998474,0.00499999988824,-0.40000000596,-0.0399999991059,7.73000001907,38.0,12.8100004196
"2005-03-30 06:00:00",11.6599998474,0.00400000018999,-0.40000000596,-0.0399999991059,7.73000001907,31.7999992371,12.8000001907
"2005-03-30 07:00:00",11.5399999619,0.00400000018999,-0.40000000596,-0.0399999991059,7.73000001907,28.2999992371,12.8400001526
"2005-03-30 08:00:00",11.720000267,0.00400000018999,-0.300000011921,-0.0299999993294,7.73000001907,24.7999992371,12.9799995422
"2005-03-30 09:00:00",12.3500003815,0.143999993801,-2.40000009537,-0.259999990463,7.76999998093,21.8999996185,13.6199998856
"2005-03-30 10:00:00",13.1499996185,0.144999995828,-0.20000000298,-0.019999999553,7.76000022888,20.3999996185,14.3100004196
"2005-03-30 11:00:00",14.1499996185,0.145999997854,-0.10000000149,-0.00999999977648,7.78000020981,37.7999992371,14.2899999619
"2005-03-30 12:00:00",15.3100004196,0.143999993801,-0.20000000298,-0.019999999553,7.80000019073,79.4000015259,14.2399997711
"2005-03-30 13:00:00",16.3099994659,0.00400000018999,-0.20000000298,-0.019999999553,7.76000022888,44.2000007629,14.220000267
"2005-03-30 14:00:00",17.1900005341,0.00300000002608,-0.10000000149,-0.00999999977648,7.76000022888,26.3999996185,14.1800003052
"2005-03-30 15:00:00",17.7199993134,0.0240000002086,-0.10000000149,-0.00999999977648,7.82000017166,22.8999996185,14.1300001144
"2005-03-30 16:00:00",17.7299995422,0.00400000018999,0.0,0.0,7.82000017166,23.2000007629,13.1499996185
"2005-03-30 17:00:00",17.6599998474,0.170000001788,-0.300000011921,-0.019999999553,7.88000011444,27.3999996185,13.0699996948
"2005-03-30 18:00:00",17.3899993896,0.00700000021607,-1.89999997616,-0.189999997616,7.82999992371,46.5,12.9899997711
"2005-03-30 19:00:00",16.8899993896,0.163000002503,-8.89999961853,-0.860000014305,7.84999990463,48.0999984741,12.970000267
"2005-03-30 20:00:00",16.3099994659,0.00600000005215,-6.90000009537,-0.680000007153,7.82999992371,65.9000015259,12.9399995804
"2005-03-30 21:00:00",15.779999733,0.00300000002608,-5.59999990463,-0.560000002384,7.80999994278,58.2000007629,12.9200000763
"2005-03-30 22:00:00",15.220000267,0.00200000009499,-4.90000009537,-0.490000009537,7.78999996185,54.7999992371,12.8999996185
"2005-03-30 23:00:00",14.8699998856,0.00300000002608,-4.5,-0.449999988079,7.78999996185,60.2000007629,12.8900003433
"2005-03-31 00:00:00",14.6199998856,0.00300000002608,-4.09999990463,-0.409999996424,7.78000020981,76.3000030518,12.8699998856
"2005-03-31 01:00:00",14.3999996185,0.00200000009499,-3.40000009537,-0.34999999404,7.78000020981,69.0,12.8500003815
"2005-03-31 02:00:00",14.2100000381,0.00200000009499,-3.40000009537,-0.34999999404,7.76999998093,46.5,12.8500003815
"2005-03-31 03:00:00",14.0600004196,0.00200000009499,-3.70000004768,-0.379999995232,7.76000022888,28.2999992371,12.8400001526
"2005-03-31 04:00:00",13.9899997711,0.00200000009499,-3.5,-0.360000014305,7.73999977112,24.7000007629,12.8299999237
"2005-03-31 05:00:00",13.9899997711,0.00200000009499,-3.40000009537,-0.34999999404,7.73999977112,15.1000003815,12.8199996948
"2005-03-31 06:00:00",13.8599996567,0.00200000009499,-3.79999995232,-0.389999985695,7.73999977112,12.6999998093,12.8100004196
"2005-03-31 07:00:00",13.779999733,0.00300000002608,-3.59999990463,-0.370000004768,7.76000022888,14.5,12.8199996948
"2005-03-31 08:00:00",13.8100004196,0.00200000009499,-3.09999990463,-0.319999992847,7.76999998093,13.1000003815,12.8400001526
"2005-03-31 09:00:00",14.0,0.105999998748,-4.09999990463,-0.419999986887,7.82000017166,13.5,12.9399995804
"2005-03-31 10:00:00",14.1499996185,0.00300000002608,-4.30000019073,-0.439999997616,7.80000019073,14.1999998093,12.8900003433
"2005-03-31 11:00:00",14.2700004578,0.00499999988824,-4.59999990463,-0.469999998808,7.80999994278,14.0,12.8900003433
"2005-03-31 12:00:00",14.6599998474,0.00400000018999,-6.69999980927,-0.680000007153,7.84999990463,26.0,13.1899995804
"2005-03-31 13:00:00",14.8999996185,0.00300000002608,-5.80000019073,-0.589999973774,7.86999988556,44.4000015259,12.9799995422
"2005-03-31 14:00:00",14.9799995422,0.00200000009499,-7.0,-0.699999988079,7.86999988556,48.9000015259,12.8699998856
"2005-03-31 15:00:00",14.9899997711,0.00300000002608,-5.5,-0.560000002384,7.86999988556,39.2000007629,12.8599996567
"2005-03-31 16:00:00",14.9899997711,0.00400000018999,-5.19999980927,-0.52999997139,7.88999986649,51.4000015259,12.8400001526
"2005-03-31 17:00:00",15.1199998856,0.286000013351,-4.30000019073,-0.439999997616,7.90999984741,63.9000015259,12.8699998856
"2005-03-31 18:00:00",15.220000267,0.15000000596,-4.30000019073,-0.430000007153,7.90000009537,182.100006104,12.7899999619
"2005-03-31 19:00:00",15.1700000763,0.148000001907,-4.80000019073,-0.479999989271,7.82000017166,123.0,12.779999733
"2005-03-31 20:00:00",15.029999733,0.143000006676,-4.5,-0.449999988079,7.75,70.9000015259,12.779999733
"2005-03-31 21:00:00",14.8599996567,0.00300000002608,-4.0,-0.409999996424,7.65999984741,65.4000015259,12.7600002289
"2005-03-31 22:00:00",14.6300001144,0.00300000002608,-3.90000009537,-0.389999985695,7.63000011444,44.0,12.7700004578
"2005-03-31 23:00:00",14.3900003433,0.00200000009499,-3.70000004768,-0.379999995232,7.63000011444,32.0999984741,12.75
